Location: Piotrkow Trybunalski
(51.4000°N, 19.6833°E)
Time: 07:20:50
(UTC+01:00)

ISS - Visible Passes

Search period start: 19 March 2019 00:00
Search period end: 29 March 2019 00:00
Orbit: 406 x 411 km, 51.6° (Epoch: 19 March)

Date Brightness Start Highest point End Pass type
(mag) Time Alt. Az. Time Alt. Az. Time Alt. Az.
22 Mar -2.3 19:38:48 10° SSW 19:40:43 23° S 19:40:43 23° S visible
23 Mar -2.1 18:48:27 10° S 18:50:44 18° SE 18:52:22 13° ESE visible
23 Mar -2.0 20:23:35 10° WSW 20:25:08 25° SW 20:25:08 25° SW visible
24 Mar -3.4 19:32:41 10° SW 19:35:50 45° SSE 19:36:34 37° ESE visible
24 Mar -0.8 21:09:00 10° W 21:09:20 12° W 21:09:20 12° W visible
25 Mar -2.9 18:41:54 10° SW 18:44:52 31° SSE 18:47:50 10° E visible
25 Mar -3.3 20:17:55 10° WSW 20:20:37 57° WSW 20:20:37 57° WSW visible
26 Mar -3.9 19:26:51 10° WSW 19:30:07 70° SSE 19:31:46 27° E visible
26 Mar -1.3 21:03:23 10° W 21:04:31 20° W 21:04:31 20° W visible
27 Mar -3.5 18:35:50 10° SW 18:39:03 53° SSE 18:42:17 10° E visible
27 Mar -3.9 20:12:15 10° W 20:15:33 84° N 20:15:34 84° N visible
28 Mar -3.9 19:21:06 10° W 19:24:26 90° NNE 19:26:33 20° E visible
28 Mar -1.7 20:57:43 10° W 20:59:17 26° W 20:59:17 26° W visible
